Location: ??
(34.9170°N, 135.5016°E)
Time: 12:19:04
(UTC+00:00)

SAR-Lupe-1 - Pass Details

Date: 29 October 2020
Orbit: 480 x 485 km, 98.2° (Epoch: 22 November)

Event Time Altitude Azimuth Distance (km) Brightness Sun altitude
Rises 20:04:59 0° 166° (SSE) 2,526 8.0 -15.3°
Reaches altitude 10° 20:07:02 10° 167° (SSE) 1,651 7.0 -14.9°
Maximum altitude 20:10:34 90° 151° (SSE) 486 4.0 -14.1°
Drops below altitude 10° 20:14:09 10° 348° (NNW) 1,662 6.6 -13.4°
Sets 20:16:13 0° 348° (NNW) 2,545 7.5 -13.0°
